Regional Weather Roundup
Issued by NWS

Home | Current Version | Previous Version | Text Only | Print | Product List | Glossary On
Versions: 1 2 3 4 5 6 7 8 9 10 11 12 13 14 15 16 17 18 19 20 21 22 23 24 25 26 27 28 29 30 31 32 33 34 35 36 37 38 39 40 41 42 43 44 45 46 47 48 49 50
000
ASUS43 KTOP 291808
RWRKS

WEATHER ROUNDUP FOR KANSAS
NATIONAL WEATHER SERVICE GOODLAND KS
100 PM CDT FRI APR 29 2016

NOTE:  "FAIR" INDICATES FEW OR NO CLOUDS BELOW 12,000 FEET WITH NO
SIGNIFICANT WEATHER AND/OR OBSTRUCTIONS TO VISIBILITY.

KSZ001>006-013>018-027>032-041>047-291900-
NORTHWEST KANSAS

CITY           SKY/WX    TMP DP  RH WIND       PRES   REMARKS
GOODLAND       LGT RAIN  38  36  92 E23G31    29.93S WCI  27
6HR MIN TEMP:  38; 6HR MAX TEMP:  40; 6HR PCP:  0.14;

HAYS           CLOUDY    43  34  70 N13       29.96F
HILL CITY      LGT RAIN  42  40  92 E13       30.00F
6HR MIN TEMP:  42; 6HR MAX TEMP:  44; 6HR PCP:  0.05;

RUSSELL        RAIN      43  42  97 NE20      29.92F FOG
6HR MIN TEMP:  43; 6HR MAX TEMP:  44; 6HR PCP:  0.31;

$$

KSZ061>065-074>080-084>089-291900-
SOUTHWEST KANSAS

CITY           SKY/WX    TMP DP  RH WIND       PRES   REMARKS
DODGE CITY     LGT RAIN  42  40  92 NE30G38   29.81F
6HR MIN TEMP:  41; 6HR MAX TEMP:  44; 6HR PCP:  1.18;

ELKHART          N/A     43  42  97 NE9         N/A
GARDEN CITY    CLOUDY    41  39  93 NE30G41   29.80F
6HR MIN TEMP:  40; 6HR MAX TEMP:  43; 6HR PCP:  0.54;

GREAT BEND     CLOUDY    43  37  81 NE13      29.95R
LIBERAL        CLOUDY    48  45  87 E24G35    29.77S
PRATT          CLOUDY    41  40  97 N16       29.88R
6HR MIN TEMP:  41; 6HR MAX TEMP:  43; 6HR PCP:  0.92;

$$

KSZ066>073-081>083-090>101-291900-
SOUTHEAST KANSAS

CITY           SKY/WX    TMP DP  RH WIND       PRES   REMARKS
CHANUTE        CLOUDY    63  51  65 NE15      29.88F
6HR MIN TEMP:  50; 6HR MAX TEMP:  64;

COFFEYVILLE    CLOUDY    65  54  67 E9G20     29.86F
6HR MIN TEMP:  54; 6HR MAX TEMP:  66;

HUTCHINSON     HVY RAIN  47  45  93 NE17G26   29.88S FOG
6HR MIN TEMP:  46; 6HR MAX TEMP:  49; 6HR PCP:  0.64;

MEDICINE LODGE   N/A     47  45  93 NE20G26   29.79F
NEWTON         CLOUDY    46  39  76 NE10G22   29.90F
PARSONS        CLOUDY    65  54  67 VRB7      29.87F
6HR MIN TEMP:  52; 6HR MAX TEMP:  66;

WICHITA INTL   LGT RAIN  50  47  89 NE17      29.84F FOG
6HR MIN TEMP:  49; 6HR MAX TEMP:  51; 6HR PCP:  0.33;

WICHITA JABRA  RAIN      48  50 100 NE10      29.91R
6HR MIN TEMP:  47; 6HR MAX TEMP:  49; 6HR PCP:  0.08;

WICHITA MCCONL TSTM      48  46  93 NE20G25   29.84F FOG
WINFIELD       CLOUDY    56  50  80 E13       29.83F
6HR MIN TEMP:  50; 6HR MAX TEMP:  56; 6HR PCP:  0.15;

$$

KSZ007>012-019>026-033>040-048>060-102>105-291900-
NORTHEAST KANSAS

CITY           SKY/WX    TMP DP  RH WIND       PRES   REMARKS
CONCORDIA      CLOUDY    46  39  76 E15G23    29.99S
6HR MIN TEMP:  45; 6HR MAX TEMP:  46; 6HR PCP: TRACE;

EMPORIA        CLOUDY    54  46  74 NE12      29.90F
6HR MIN TEMP:  48; 6HR MAX TEMP:  54;

LAWRENCE       CLOUDY    56  46  69 NE14      29.99F
6HR MIN TEMP:  47; 6HR MAX TEMP:  57;

MANHATTAN      CLOUDY    49  42  77 NE12      29.98F
6HR MIN TEMP:  47; 6HR MAX TEMP:  49; 6HR PCP:  0.04;

MARYSVILLE     CLOUDY    46  43  87 E14       30.01F
OLATHE IND     CLOUDY    57  47  69 NE15      29.98F
6HR MIN TEMP:  48; 6HR MAX TEMP:  57;

OLATHE EXE     CLOUDY    56  47  71 NE12      29.97F
6HR MIN TEMP:  47; 6HR MAX TEMP:  56;

SALINA         HVY RAIN  46  44  93 NE13      29.96F FOG
6HR MIN TEMP:  46; 6HR MAX TEMP:  48; 6HR PCP:  0.62;

TOPEKA BILLARD CLOUDY    53  45  74 NE10      29.99F
6HR MIN TEMP:  48; 6HR MAX TEMP:  53;

TOPEKA FORBES  CLOUDY    54  45  71 NE15      29.96F
6HR MIN TEMP:  49; 6HR MAX TEMP:  54;

$$



USA.gov is the U.S. government's official web portal to all federal, state and local government web resources and services.